sat.trackr.live / text

‹ back to catalog

STARLINK-11577 [DTC]

NORAD 63013 · 2025-032J

PAYLOAD ACTIVE UNKNOWN

§ Identity

Operator
Country
US
Launch date
2025-02-15
Launch site
AFETR
Launch vehicle
Mass (kg)
RCS (m²)

Purposes: comms

External: N2YO · Heavens-Above · Gunter

§ Orbital elements

Epoch: 2026-05-24T23:52:16.319712Z

Period
91.67 min
Inclination
43.0005°
Eccentricity
0.0001950
Mean motion
15.70867358 rev/d
Perigee alt
355.1 km
Apogee alt
357.7 km
Semi-major
6,734.6 km
B*
1.1100e-3
RAAN
95.4812°
Arg perigee
271.3522°
Mean anomaly
88.7122°
Rev number
7,421

§ Raw data

STARLINK-11577 [DTC]1 63013U 25032J   26144.99463333  .00144647  00000+0  11100-2 0  99922 63013  43.0005  95.4812 0001950 271.3522  88.7122 15.70867358 74215

JSON: /api/v1/satellites/63013 · /tle

For live sub-satellite position, see the globe view (requires WebGL).

§ Visibility from observer

Set your observer location to see the next 7 days of passes ≥ 10°. The values pass through the URL so the page stays shareable.

No JS? Fill the form by hand. The geolocation button needs JavaScript.